Location: Doverdale
(52.2833°N, 2.2000°W)
Time: 02:20:27
(UTC+00:00)

Cosmos 1606 Rocket - Pass Details

Date: 29 October 2020
Orbit: 603 x 631 km, 82.5° (Epoch: 27 November)

Event Time Altitude Azimuth Distance (km) Brightness Sun altitude
Rises 17:40:43 0° 188° (S) 2,872 7.2 -9.1°
Reaches altitude 10° 17:42:55 10° 188° (S) 1,976 6.4 -9.4°
Maximum altitude 17:47:18 87° 100° (E) 629 3.6 -10.1°
Drops below altitude 10° 17:51:46 10° 11° (NNE) 2,010 6.0 -10.8°
Sets 17:54:01 0° 12° (NNE) 2,926 6.8 -11.1°
